Time,TemperatureF,DewpointF,PressureIn,WindDirection,WindDirectionDegrees,WindSpeedMPH,WindSpeedGustMPH,Humidity,HourlyPrecipIn,Conditions,Clouds,dailyrainin,SolarRadiationWatts/m^2,SoftwareType,DateUTC
2013-06-29 00:01:00,69.0,59.0,29.78,NW,317,5.0,12.0,70,0.00,,,0.00,0.000000,,2013-06-29 04:01:00,
2013-06-29 00:10:00,69.0,57.0,29.79,NNW,337,5.0,12.0,65,0.00,,,0.00,0.000000,,2013-06-29 04:10:00,
2013-06-29 00:32:00,69.0,57.0,29.79,NNW,337,5.0,12.0,65,0.00,,,0.00,0.000000,,2013-06-29 04:32:00,
2013-06-29 00:41:00,69.0,57.0,29.79,NNW,337,5.0,12.0,65,0.00,,,0.00,0.000000,,2013-06-29 04:41:00,
2013-06-29 00:51:00,69.0,57.0,29.79,NNW,337,5.0,12.0,65,0.00,,,0.00,0.000000,,2013-06-29 04:51:00,
2013-06-29 01:01:00,69.0,57.0,29.79,NNW,337,5.0,12.0,65,0.00,,,0.00,0.000000,,2013-06-29 05:01:00,
2013-06-29 01:10:00,70.0,58.0,29.78,NW,326,5.0,10.0,66,0.00,,,0.00,0.000000,,2013-06-29 05:10:00,
2013-06-29 01:42:00,70.0,58.0,29.78,NW,326,5.0,10.0,66,0.00,,,0.00,0.000000,,2013-06-29 05:42:00,
2013-06-29 01:52:00,70.0,58.0,29.78,NW,326,5.0,10.0,66,0.00,,,0.00,0.000000,,2013-06-29 05:52:00,
2013-06-29 02:01:00,70.0,58.0,29.78,NW,326,5.0,10.0,66,0.00,,,0.00,0.000000,,2013-06-29 06:01:00,
2013-06-29 02:10:00,67.0,58.0,29.74,NNW,335,5.0,11.0,74,0.00,,,0.00,0.000000,,2013-06-29 06:10:00,
2013-06-29 02:43:00,67.0,58.0,29.74,NNW,335,5.0,11.0,74,0.00,,,0.00,0.000000,,2013-06-29 06:43:00,
2013-06-29 02:53:00,67.0,58.0,29.74,NNW,335,5.0,11.0,74,0.00,,,0.00,0.000000,,2013-06-29 06:53:00,
2013-06-29 03:02:00,67.0,58.0,29.74,NNW,335,5.0,11.0,74,0.00,,,0.00,0.000000,,2013-06-29 07:02:00,
2013-06-29 03:10:00,66.0,59.0,29.73,NW,304,4.0,16.0,77,0.00,,,0.00,0.000000,,2013-06-29 07:10:00,
2013-06-29 03:43:00,66.0,59.0,29.73,NW,304,4.0,16.0,77,0.00,,,0.00,0.000000,,2013-06-29 07:43:00,
2013-06-29 03:53:00,66.0,59.0,29.73,NW,304,4.0,16.0,77,0.00,,,0.00,0.000000,,2013-06-29 07:53:00,
2013-06-29 04:01:00,66.0,59.0,29.73,NW,304,4.0,16.0,77,0.00,,,0.00,0.000000,,2013-06-29 08:01:00,
2013-06-29 04:10:00,66.0,58.0,29.73,NW,324,2.0,7.0,75,0.00,,,0.00,0.000000,,2013-06-29 08:10:00,
2013-06-29 04:43:00,66.0,58.0,29.73,NW,324,2.0,7.0,75,0.00,,,0.00,0.000000,,2013-06-29 08:43:00,
2013-06-29 04:52:00,66.0,58.0,29.73,NW,324,2.0,7.0,75,0.00,,,0.00,0.000000,,2013-06-29 08:52:00,
2013-06-29 05:02:00,66.0,58.0,29.73,NW,324,2.0,7.0,75,0.00,,,0.00,0.000000,,2013-06-29 09:02:00,
2013-06-29 05:10:00,66.0,60.0,29.75,SW,222,4.0,11.0,82,0.00,,,0.00,0.000000,,2013-06-29 09:10:00,
2013-06-29 05:42:00,66.0,60.0,29.75,SW,222,4.0,11.0,82,0.00,,,0.00,0.000000,,2013-06-29 09:42:00,
2013-06-29 05:53:00,66.0,60.0,29.75,SW,222,4.0,11.0,82,0.00,,,0.00,0.000000,,2013-06-29 09:53:00,
2013-06-29 06:01:00,66.0,60.0,29.75,SW,222,4.0,11.0,82,0.00,,,0.00,0.000000,,2013-06-29 10:01:00,
2013-06-29 06:10:00,65.0,60.0,29.75,WSW,245,4.0,10.0,83,0.00,,,0.00,0.000000,,2013-06-29 10:10:00,
2013-06-29 06:43:00,65.0,60.0,29.75,WSW,245,4.0,10.0,83,0.00,,,0.00,0.000000,,2013-06-29 10:43:00,
2013-06-29 06:53:00,65.0,60.0,29.75,WSW,245,4.0,10.0,83,0.00,,,0.00,0.000000,,2013-06-29 10:53:00,
2013-06-29 07:02:00,65.0,60.0,29.75,WSW,245,4.0,10.0,83,0.00,,,0.00,0.000000,,2013-06-29 11:02:00,
2013-06-29 07:10:00,66.0,60.0,29.76,SW,236,5.0,10.0,80,0.00,,,0.00,0.000000,,2013-06-29 11:10:00,
2013-06-29 07:43:00,66.0,60.0,29.76,SW,236,5.0,10.0,80,0.00,,,0.00,0.000000,,2013-06-29 11:43:00,
2013-06-29 07:53:00,66.0,60.0,29.76,SW,236,5.0,10.0,80,0.00,,,0.00,0.000000,,2013-06-29 11:53:00,
2013-06-29 08:02:00,66.0,60.0,29.76,SW,236,5.0,10.0,80,0.00,,,0.00,0.000000,,2013-06-29 12:02:00,
2013-06-29 08:10:00,68.0,62.0,29.78,WSW,247,4.0,14.0,82,0.00,,,0.00,24.000000,,2013-06-29 12:10:00,
2013-06-29 08:43:00,68.0,62.0,29.78,WSW,247,4.0,14.0,82,0.00,,,0.00,24.000000,,2013-06-29 12:43:00,
2013-06-29 08:53:00,68.0,62.0,29.78,WSW,247,4.0,14.0,82,0.00,,,0.00,24.000000,,2013-06-29 12:53:00,
2013-06-29 09:02:00,68.0,62.0,29.78,WSW,247,4.0,14.0,82,0.00,,,0.00,24.000000,,2013-06-29 13:02:00,
2013-06-29 09:10:00,68.0,61.0,29.79,WSW,242,3.0,15.0,79,0.00,,,0.00,65.000000,,2013-06-29 13:10:00,
2013-06-29 09:43:00,68.0,61.0,29.79,WSW,242,3.0,15.0,79,0.00,,,0.00,65.000000,,2013-06-29 13:43:00,
2013-06-29 09:53:00,68.0,61.0,29.79,WSW,242,3.0,15.0,79,0.00,,,0.00,65.000000,,2013-06-29 13:53:00,
2013-06-29 10:02:00,68.0,61.0,29.79,WSW,242,3.0,15.0,79,0.00,,,0.00,65.000000,,2013-06-29 14:02:00,
2013-06-29 11:10:00,81.0,64.0,29.78,SW,222,4.0,13.0,56,-99.99,,,0.00,526.000000,,2013-06-29 15:10:00,
2013-06-29 12:02:00,81.0,64.0,29.78,SW,222,4.0,13.0,56,-99.99,,,0.00,526.000000,,2013-06-29 16:02:00,
2013-06-29 12:10:00,80.0,65.0,29.78,SSW,206,5.0,12.0,60,0.00,,,0.00,945.000000,,2013-06-29 16:10:00,
2013-06-29 12:34:00,80.0,65.0,29.78,SSW,206,5.0,12.0,60,0.00,,,0.00,945.000000,,2013-06-29 16:34:00,
2013-06-29 12:43:00,80.0,65.0,29.78,SSW,206,5.0,12.0,60,0.00,,,0.00,945.000000,,2013-06-29 16:43:00,
2013-06-29 12:53:00,80.0,65.0,29.78,SSW,206,5.0,12.0,60,0.00,,,0.00,945.000000,,2013-06-29 16:53:00,
2013-06-29 13:02:00,80.0,65.0,29.78,SSW,206,5.0,12.0,60,0.00,,,0.00,945.000000,,2013-06-29 17:02:00,
2013-06-29 13:10:00,79.0,61.0,29.78,SW,214,5.0,16.0,54,0.00,,,0.00,945.000000,,2013-06-29 17:10:00,
2013-06-29 13:34:00,79.0,61.0,29.78,SW,214,5.0,16.0,54,0.00,,,0.00,945.000000,,2013-06-29 17:34:00,
2013-06-29 13:42:00,79.0,61.0,29.78,SW,214,5.0,16.0,54,0.00,,,0.00,945.000000,,2013-06-29 17:42:00,
2013-06-29 13:53:00,79.0,61.0,29.78,SW,214,5.0,16.0,54,0.00,,,0.00,945.000000,,2013-06-29 17:53:00,
2013-06-29 14:02:00,79.0,61.0,29.78,SW,214,5.0,16.0,54,0.00,,,0.00,945.000000,,2013-06-29 18:02:00,
2013-06-29 14:10:00,82.0,63.0,29.78,SSW,199,7.0,17.0,52,0.00,,,0.00,1057.000000,,2013-06-29 18:10:00,
2013-06-29 14:43:00,82.0,63.0,29.78,SSW,199,7.0,17.0,52,0.00,,,0.00,1057.000000,,2013-06-29 18:43:00,
2013-06-29 14:53:00,82.0,63.0,29.78,SSW,199,7.0,17.0,52,0.00,,,0.00,1057.000000,,2013-06-29 18:53:00,
2013-06-29 15:01:00,82.0,63.0,29.78,SSW,199,7.0,17.0,52,0.00,,,0.00,1057.000000,,2013-06-29 19:01:00,
2013-06-29 15:10:00,84.0,63.0,29.76,South,190,7.0,17.0,49,0.00,,,0.00,1118.000000,,2013-06-29 19:10:00,
2013-06-29 15:43:00,84.0,63.0,29.76,South,190,7.0,17.0,49,0.00,,,0.00,1118.000000,,2013-06-29 19:43:00,
2013-06-29 15:54:00,84.0,63.0,29.76,South,190,7.0,17.0,49,0.00,,,0.00,1118.000000,,2013-06-29 19:54:00,
2013-06-29 16:02:00,84.0,63.0,29.76,South,190,7.0,17.0,49,0.00,,,0.00,1118.000000,,2013-06-29 20:02:00,
2013-06-29 16:10:00,79.0,62.0,29.76,SSW,211,5.0,15.0,56,0.00,,,0.00,1212.000000,,2013-06-29 20:10:00,
2013-06-29 16:33:00,79.0,62.0,29.76,SSW,211,5.0,15.0,56,0.00,,,0.00,1212.000000,,2013-06-29 20:33:00,
2013-06-29 16:43:00,79.0,62.0,29.76,SSW,211,5.0,15.0,56,0.00,,,0.00,1212.000000,,2013-06-29 20:43:00,
2013-06-29 16:52:00,79.0,62.0,29.76,SSW,211,5.0,15.0,56,0.00,,,0.00,1212.000000,,2013-06-29 20:52:00,
2013-06-29 17:02:00,79.0,62.0,29.76,SSW,211,5.0,15.0,56,0.00,,,0.00,1212.000000,,2013-06-29 21:02:00,
2013-06-29 18:10:00,85.0,63.0,29.76,SW,227,4.0,11.0,48,-99.99,,,0.00,892.000000,,2013-06-29 22:10:00,
2013-06-29 18:43:00,85.0,63.0,29.76,SW,227,4.0,11.0,48,-99.99,,,0.00,892.000000,,2013-06-29 22:43:00,
2013-06-29 18:53:00,85.0,63.0,29.76,SW,227,4.0,11.0,48,-99.99,,,0.00,892.000000,,2013-06-29 22:53:00,
2013-06-29 19:02:00,85.0,63.0,29.76,SW,227,4.0,11.0,48,-99.99,,,0.00,892.000000,,2013-06-29 23:02:00,
2013-06-29 19:10:00,82.0,63.0,29.77,SSW,208,4.0,11.0,53,0.00,,,0.00,406.000000,,2013-06-29 23:10:00,
2013-06-29 19:34:00,82.0,63.0,29.77,SSW,208,4.0,11.0,53,0.00,,,0.00,406.000000,,2013-06-29 23:34:00,
2013-06-29 19:43:00,82.0,63.0,29.77,SSW,208,4.0,11.0,53,0.00,,,0.00,406.000000,,2013-06-29 23:43:00,
2013-06-29 19:53:00,82.0,63.0,29.77,SSW,208,4.0,11.0,53,0.00,,,0.00,406.000000,,2013-06-29 23:53:00,
2013-06-29 20:02:00,82.0,63.0,29.77,SSW,208,4.0,11.0,53,0.00,,,0.00,406.000000,,2013-06-30 00:02:00,
2013-06-29 21:10:00,72.0,62.0,29.78,SSW,201,5.0,13.0,70,-99.99,,,0.00,177.000000,,2013-06-30 01:10:00,
2013-06-29 21:33:00,72.0,62.0,29.78,SSW,201,5.0,13.0,70,-99.99,,,0.00,177.000000,,2013-06-30 01:33:00,
2013-06-29 21:44:00,72.0,62.0,29.78,SSW,201,5.0,13.0,70,-99.99,,,0.00,177.000000,,2013-06-30 01:44:00,
2013-06-29 21:53:00,72.0,62.0,29.78,SSW,201,5.0,13.0,70,-99.99,,,0.00,177.000000,,2013-06-30 01:53:00,
2013-06-29 22:02:00,72.0,62.0,29.78,SSW,201,5.0,13.0,70,-99.99,,,0.00,177.000000,,2013-06-30 02:02:00,
2013-06-29 22:10:00,73.0,64.0,29.81,SSW,213,5.0,11.0,73,0.00,,,0.00,11.000000,,2013-06-30 02:10:00,
2013-06-29 22:34:00,73.0,64.0,29.81,SSW,213,5.0,11.0,73,0.00,,,0.00,11.000000,,2013-06-30 02:34:00,
2013-06-29 22:43:00,73.0,64.0,29.81,SSW,213,5.0,11.0,73,0.00,,,0.00,11.000000,,2013-06-30 02:43:00,
2013-06-29 22:53:00,73.0,64.0,29.81,SSW,213,5.0,11.0,73,0.00,,,0.00,11.000000,,2013-06-30 02:53:00,
2013-06-29 23:02:00,73.0,64.0,29.81,SSW,213,5.0,11.0,73,0.00,,,0.00,11.000000,,2013-06-30 03:02:00,
2013-06-29 23:10:00,71.0,65.0,29.82,SW,222,5.0,12.0,81,0.00,,,0.00,0.000000,,2013-06-30 03:10:00,
2013-06-29 23:43:00,71.0,65.0,29.82,SW,222,5.0,12.0,81,0.00,,,0.00,0.000000,,2013-06-30 03:43:00,
2013-06-29 23:53:00,71.0,65.0,29.82,SW,222,5.0,12.0,81,0.00,,,0.00,0.000000,,2013-06-30 03:53:00,